Buena Vista, CO

6:27 AM MDT on May 28, 2017 (GMT -0600)
Buena Vista

Weather History for KAEJ - March, 2014

Change the Weather History Date:

Sunday, March 30, 2014

  Actual Average (KLXV) Record (KLXV)
Temperature  
Mean Temperature 38 °F -  
Max Temperature 54 °F 36 °F 53 °F (1978)
Min Temperature 23 °F 18 °F -11 °F (1987)
Degree Days  
Heating Degree Days 26    
Moisture  
Dew Point 14 °F    
Average Humidity 39    
Maximum Humidity 75    
Minimum Humidity 15    
Precipitation  
Precipitation 0.00 in - - ()
Sea Level Pressure  
Sea Level Pressure 29.87 in    
Wind  
Wind Speed 7 mph (SSW)    
Max Wind Speed 26 mph    
Max Gust Speed 50 mph    
Visibility 10 miles    
Events Snow    
Averages and records for this station are not official NWS values.
T = Trace of Precipitation, MM = Missing Value Source: NWS Daily Summary

Daily Weather History Graph

Daily Weather History Graph

Search for Another Location

Airport or City:

Trip Planner

Search our weather history database for the weather conditions in past years. The results will help you decide how hot, cold, wet, or windy it might be!

Date:

Astronomy

Mar. 30, 2014 Rise Set
Actual Time 6:52 AM MDT 7:26 PM MDT
Civil Twilight 6:25 AM MDT 7:52 PM MDT
Nautical Twilight 5:53 AM MDT 8:24 PM MDT
Astronomical Twilight 5:21 AM MDT 8:57 PM MDT
Moon 6:39 AM MDT (3/30) 7:41 PM MDT (3/30)
Length of Visible Light 13h 27m
Length of Day
12h 33m
Waning Crescent, 0% of the Moon is Illuminated
Mar 30
Waning Crescent
Mar 30
New
Apr 7
First Quarter
Apr 15
Full
Apr 22
Last Quarter

Hourly Weather History & Observations

Time (MDT) Temp. Windchill Dew Point Humidity Pressure Visibility Wind Dir Wind Speed Gust Speed Precip Events Conditions
12:15 AM 38.1 °F - 10.4 °F 32% 30.09 in 10.0 mi Calm Calm - N/A   Clear
12:35 AM 34.5 °F - 10.8 °F 37% 30.07 in 10.0 mi Calm Calm - N/A   Clear
12:55 AM 31.6 °F - 10.9 °F 42% 30.07 in 10.0 mi Calm Calm - N/A   Clear
1:15 AM 29.5 °F 25.9 °F 11.3 °F 47% 30.06 in 10.0 mi WNW 3.5 mph - N/A   Clear
1:35 AM 30.0 °F - 12.0 °F 47% 30.05 in 10.0 mi Calm Calm - N/A   Clear
1:55 AM 29.1 °F 25.4 °F 11.5 °F 48% 30.05 in 10.0 mi SW 3.5 mph - N/A   Clear
2:15 AM 32.7 °F - 11.1 °F 41% 30.04 in 10.0 mi Calm Calm - N/A   Clear
2:35 AM 28.9 °F - 11.8 °F 49% 30.03 in 10.0 mi Calm Calm - N/A   Clear
2:55 AM 27.1 °F 19.7 °F 11.8 °F 53% 30.02 in 10.0 mi WSW 6.9 mph - N/A   Clear
3:15 AM 30.9 °F 24.3 °F 11.7 °F 45% 30.02 in 10.0 mi WSW 6.9 mph - N/A   Clear
3:35 AM 30.0 °F 24.1 °F 12.6 °F 48% 30.01 in 10.0 mi SW 5.8 mph - N/A   Clear
3:55 AM 28.2 °F - 13.1 °F 53% 30.00 in 10.0 mi Calm Calm - N/A   Clear
4:15 AM 27.3 °F 23.4 °F 13.6 °F 56% 29.99 in 10.0 mi SW 3.5 mph - N/A   Clear
4:35 AM 27.1 °F 18.9 °F 12.9 °F 55% 29.99 in 10.0 mi WNW 8.1 mph - N/A   Clear
4:55 AM 23.7 °F 16.6 °F 12.7 °F 63% 29.98 in 10.0 mi WNW 5.8 mph - N/A   Clear
5:15 AM 25.5 °F 19.9 °F 12.9 °F 59% 29.98 in 10.0 mi West 4.6 mph - N/A   Clear
5:35 AM 27.0 °F 23.0 °F 13.3 °F 56% 29.98 in 10.0 mi NW 3.5 mph - N/A   Clear
5:55 AM 25.7 °F - 12.9 °F 58% 29.97 in 10.0 mi Calm Calm - N/A   Clear
6:15 AM 23.9 °F 18.0 °F 12.9 °F 63% 29.97 in 10.0 mi West 4.6 mph - N/A   Clear
6:35 AM 26.1 °F 20.5 °F 13.1 °F 58% 29.96 in 10.0 mi WNW 4.6 mph - N/A   Clear
6:55 AM 25.0 °F 18.1 °F 13.3 °F 61% 29.97 in 10.0 mi West 5.8 mph - N/A   Clear
7:15 AM 26.1 °F 19.4 °F 13.5 °F 59% 29.97 in 10.0 mi West 5.8 mph - N/A   Clear
7:35 AM 31.1 °F 26.4 °F 14.4 °F 50% 29.97 in 10.0 mi West 4.6 mph - N/A   Clear
7:55 AM 31.8 °F 27.3 °F 15.8 °F 52% 29.96 in 10.0 mi WSW 4.6 mph - N/A   Clear
8:15 AM 34.7 °F - 16.3 °F 47% 29.96 in 10.0 mi Calm Calm - N/A   Clear
8:35 AM 36.5 °F 33.9 °F 16.0 °F 43% 29.95 in 10.0 mi North 3.5 mph - N/A   Clear
8:55 AM 39.9 °F 35.8 °F 14.0 °F 35% 29.95 in 10.0 mi WNW 5.8 mph - N/A   Clear
9:15 AM 42.8 °F - 11.1 °F 28% 29.95 in 10.0 mi Calm Calm - N/A   Clear
9:35 AM 45.5 °F - 11.3 °F 25% 29.94 in 10.0 mi Calm Calm - N/A   Clear
9:55 AM 49.5 °F - 11.1 °F 21% 29.95 in 10.0 mi SE 13.8 mph 18.4 mph N/A   Clear
10:15 AM 49.3 °F - 10.9 °F 21% 29.94 in 10.0 mi South 5.8 mph 16.1 mph N/A   Clear
10:35 AM 51.4 °F - 9.7 °F 19% 29.93 in 10.0 mi WSW 21.9 mph 32.2 mph N/A   Clear
10:55 AM 51.6 °F - 9.9 °F 19% 29.93 in 10.0 mi SW 23.0 mph 27.6 mph N/A   Clear
11:15 AM 52.2 °F - 10.6 °F 19% 29.93 in 10.0 mi WSW 13.8 mph 28.8 mph N/A   Clear
11:35 AM 50.2 °F - 11.3 °F 21% 29.92 in 10.0 mi SE 13.8 mph 18.4 mph N/A   Scattered Clouds
11:55 AM 50.0 °F - 11.3 °F 21% 29.91 in 10.0 mi SE 15.0 mph 18.4 mph N/A   Mostly Cloudy
12:15 PM 50.0 °F - 10.8 °F 21% 29.89 in 10.0 mi SE 13.8 mph 17.3 mph N/A   Overcast
12:35 PM 49.6 °F - 11.3 °F 21% 29.87 in 10.0 mi SE 16.1 mph - N/A   Overcast
12:55 PM 50.2 °F - 10.8 °F 21% 29.86 in 10.0 mi SE 12.7 mph - N/A   Overcast
1:15 PM 50.2 °F - 10.9 °F 21% 29.85 in 10.0 mi SSE 13.8 mph 17.3 mph N/A   Overcast
1:35 PM 50.0 °F - 11.3 °F 21% 29.84 in 10.0 mi SSE 12.7 mph 18.4 mph N/A   Overcast
1:55 PM 51.6 °F - 11.5 °F 20% 29.82 in 10.0 mi SE 18.4 mph 21.9 mph N/A   Mostly Cloudy
2:15 PM 52.9 °F - 10.6 °F 18% 29.80 in 10.0 mi South 10.4 mph 25.3 mph N/A   Scattered Clouds
2:35 PM 54.1 °F - 7.3 °F 15% 29.79 in 10.0 mi SSW 11.5 mph 25.3 mph N/A   Scattered Clouds
2:55 PM 54.7 °F - 7.5 °F 15% 29.78 in 10.0 mi SSW 16.1 mph 21.9 mph N/A   Clear
3:15 PM 53.6 °F - 7.5 °F 16% 29.76 in 10.0 mi South 11.5 mph 26.5 mph N/A   Mostly Cloudy
3:35 PM 53.1 °F - 8.1 °F 16% 29.74 in 10.0 mi South 19.6 mph 34.5 mph N/A   Mostly Cloudy
3:55 PM 54.7 °F - 8.6 °F 16% 29.74 in 10.0 mi South 18.4 mph 36.8 mph N/A   Scattered Clouds
4:15 PM 51.8 °F - 9.5 °F 18% 29.74 in 10.0 mi South 25.3 mph 39.1 mph N/A   Scattered Clouds
4:35 PM 50.9 °F - 10.4 °F 20% 29.73 in 10.0 mi South 26.5 mph 49.5 mph N/A   Mostly Cloudy
4:55 PM 49.8 °F - 11.7 °F 22% 29.74 in 10.0 mi SSW 16.1 mph 39.1 mph N/A   Scattered Clouds
5:15 PM 50.7 °F - 12.2 °F 21% 29.72 in 10.0 mi South 20.7 mph 31.1 mph N/A   Scattered Clouds
5:35 PM 48.6 °F - 15.3 °F 26% 29.71 in 10.0 mi SSE 21.9 mph 34.5 mph N/A   Scattered Clouds
5:55 PM 46.0 °F 38.3 °F 19.2 °F 34% 29.69 in 10.0 mi SE 20.7 mph 29.9 mph N/A   Mostly Cloudy
6:15 PM 44.1 °F 34.8 °F 22.1 °F 42% 29.67 in 10.0 mi SE 25.3 mph 35.7 mph N/A   Overcast
6:35 PM 44.1 °F 37.1 °F 21.2 °F 40% 29.67 in 10.0 mi SSE 15.0 mph 28.8 mph N/A   Overcast
6:55 PM 43.9 °F 35.0 °F 21.7 °F 41% 29.68 in 10.0 mi SE 23.0 mph 32.2 mph N/A   Overcast
7:15 PM 42.3 °F 34.1 °F 24.8 °F 50% 29.68 in 10.0 mi SSE 17.3 mph 35.7 mph N/A   Overcast
7:35 PM 42.1 °F 35.7 °F 24.3 °F 49% 29.66 in 10.0 mi SSE 11.5 mph 20.7 mph N/A   Overcast
7:55 PM 42.8 °F 38.6 °F 23.0 °F 46% 29.64 in 10.0 mi SSE 6.9 mph 12.7 mph N/A   Overcast
8:15 PM 41.5 °F 35.9 °F 25.0 °F 52% 29.65 in 10.0 mi West 9.2 mph - N/A   Overcast
8:35 PM 39.9 °F 32.1 °F 27.1 °F 60% 29.70 in 5.0 mi SW 13.8 mph 32.2 mph N/A   Unknown
8:55 PM 37.9 °F 30.5 °F 28.2 °F 68% 29.73 in 4.0 mi West 11.5 mph 19.6 mph N/A Snow Light Snow
9:15 PM 34.5 °F 23.1 °F 27.3 °F 75% 29.77 in 3.0 mi WSW 20.7 mph 29.9 mph N/A Snow Light Snow
9:35 PM 34.2 °F 24.4 °F 24.3 °F 67% 29.78 in 5.0 mi SW 15.0 mph 27.6 mph N/A Snow Light Snow
9:55 PM 34.7 °F 25.9 °F 19.0 °F 53% 29.75 in 10.0 mi SW 12.7 mph 23.0 mph N/A   Mostly Cloudy
10:15 PM 35.6 °F 25.9 °F 10.8 °F 36% 29.77 in 10.0 mi WSW 16.1 mph 25.3 mph N/A   Scattered Clouds
10:35 PM 36.1 °F 27.7 °F 7.2 °F 30% 29.78 in 10.0 mi SW 12.7 mph 18.4 mph N/A   Mostly Cloudy
10:55 PM 35.1 °F 23.5 °F 8.8 °F 34% 29.78 in 10.0 mi WSW 21.9 mph 26.5 mph N/A   Overcast
11:15 PM 34.0 °F 24.6 °F 10.8 °F 38% 29.78 in 10.0 mi WSW 13.8 mph 19.6 mph N/A   Mostly Cloudy
11:35 PM 33.3 °F 22.5 °F 14.0 °F 45% 29.77 in 10.0 mi WSW 17.3 mph 25.3 mph N/A   Mostly Cloudy
11:55 PM 32.9 °F 22.8 °F 14.2 °F 46% 29.77 in 10.0 mi WSW 15.0 mph 27.6 mph N/A   Scattered Clouds